User: anonymous   Login
Location: Unspecified
(0.0000°N, 0.0000°E)
Time: 16:28:40
(UTC+00:00)
Language:

BRITE TORONTO - Orbit

View from above orbital plane
View from above orbital plane
View from above satellite
View from above satellite

Ground track
Ground track

The orbit data is extracted from the following two-line orbital elements,

1 40020U 14033L   21337.03552462  .00000243  00000-0  49431-4 0  9994
2 40020  97.7549 141.3137 0087473 169.1626 191.1491 14.66808864398972
Epoch (UTC): 03 December 2021 00:51:09
Eccentricity: 0.0087473
inclination: 97.7549°
perigee height: 609 km
apogee height: 733 km
right ascension of ascending node: 141.3137°
argument of perigee: 169.1626°
revolutions per day: 14.66808864
mean anomaly at epoch: 191.1491°
orbit number at epoch: 39897

The dashed part of the orbit path shows where the satellite is in the earth's shadow,  

DLR